FW0442 Weather Reports


Display with metric or nautical units.
time (UTC)temp
F
wind
direction
speed
MPH
gust
MPH
rain 1hr
in
rain 24hr
in
rain mn
in
humidity
%
barometer
mb
20260507001223 44 310 0.0 4.0 0.00 0.00 0.00 91 1014.9
20260506234216 44 97 0.0 3.0 0.00 0.00 0.00 90 1014.9
20260506231215 44 6 0.0 4.0 0.00 0.00 0.00 89 1014.8
20260506224207 45 319 0.0 2.0 0.00 0.00 0.00 88 1014.9
20260506211202 46 27 0.0 2.0 0.00 0.00 0.00 84 1014.5
20260506204202 46 31 1.0 3.0 0.00 0.00 0.00 82 1014.2
20260506191202 50 293 0.0 3.0 0.00 0.00 0.00 71 1013.4
20260506181201 54 61 1.0 5.0 0.00 0.00 0.00 61 1013.3
20260506174203 54 21 0.0 5.0 0.00 0.00 0.00 61 1013.1
20260506171202 55 124 0.0 3.0 0.00 0.00 0.00 59 1012.9
20260506164203 55 56 1.0 5.0 0.00 0.00 0.00 56 1013.0
20260506161202 55 31 0.0 9.0 0.00 0.00 0.00 55 1012.8
20260506154203 56 159 1.0 7.0 0.00 0.00 0.00 58 1012.9
20260506151202 56 44 1.0 5.0 0.00 0.00 0.00 57 1013.1
20260506144201 56 21 2.0 5.0 0.00 0.00 0.00 56 1013.2
20260506141202 55 338 2.0 7.0 0.00 0.00 0.00 60 1013.4
20260506131203 56 66 2.0 6.0 0.00 0.00 0.00 59 1013.6
20260506124203 56 18 3.0 10.0 0.00 0.00 0.00 60 1013.7
20260506121203 54 358 3.0 6.0 0.00 0.00 0.00 63 1013.8
20260506111204 51 0 1.0 9.0 0.00 0.00 0.00 70 1014.2
20260506104203 51 333 2.0 9.0 0.00 0.00 0.00 71 1014.4
20260506091203 47 59 1.0 6.0 0.00 0.00 0.00 77 1014.3
20260506084202 46 37 2.0 4.0 0.00 0.00 0.00 79 1014.2
20260506081202 46 353 1.0 5.0 0.00 0.00 0.00 81 1014.3
20260506071204 45 58 1.0 5.0 0.00 0.00 0.00 82 1014.1
20260506061203 45 62 1.0 3.0 0.00 0.00 0.00 83 1013.9
20260506051204 44 293 1.0 5.0 0.00 0.00 0.00 82 1013.7
20260506044202 45 358 0.0 3.0 0.00 0.00 0.00 84 1013.7
20260506041204 45 326 0.0 1.0 0.00 0.00 0.00 84 1013.6
20260506031204 45 345 0.0 3.0 0.00 0.00 0.00 81 1013.8
20260506024202 46 41 1.0 6.0 0.00 0.00 0.00 79 1013.7
20260506021203 46 54 2.0 5.0 0.00 0.00 0.00 81 1013.7
20260506014203 47 330 1.0 5.0 0.00 0.00 0.00 83 1013.6
20260506011203 47 39 1.0 6.0 0.00 0.00 0.00 82 1013.8
20260506004201 48 25 2.0 6.0 0.00 0.00 0.00 82 1013.8